,,PA_Meas_PMT16A,,PR_Meas_QMR101_102,,RH_Meas_QMH101,,SR_Meas_QMS101,,TA_Meas_QMH101,,GenWind,,GenWind,
time,status,PA,status,PR,status,RH,status,SR,status,TA,status,DirAvg,status,SpdAvg,
2015-12-29, 07:43:04,VALID,920.829,VALID,0,VALID,104,VALID,74.2418,VALID,21.2827,VALID,139,VALID,0,
2015-12-29, 08:00:04,VALID,921.002,VALID,0,VALID,103.305,VALID,108.516,VALID,21.5559,VALID,164,VALID,0,
2015-12-29, 08:01:04,VALID,921.021,VALID,0,VALID,103.229,VALID,116.036,VALID,21.5949,VALID,165,VALID,0,
2015-12-29, 08:02:04,VALID,921.031,VALID,0,VALID,103.198,VALID,122.913,VALID,21.6534,VALID,165,VALID,0,
2015-12-29, 08:03:04,VALID,921.049,VALID,0,VALID,102.947,VALID,131.508,VALID,21.7331,VALID,145,VALID,0,
2015-12-29, 08:04:04,VALID,921.059,VALID,0,VALID,102.565,VALID,139.244,VALID,21.7526,VALID,130,VALID,0,
2015-12-29, 08:05:04,VALID,921.061,VALID,0,VALID,102.642,VALID,145.475,VALID,21.79,VALID,132,VALID,0,
2015-12-29, 08:06:04,VALID,921.074,VALID,0,VALID,102.139,VALID,146.765,VALID,21.829,VALID,132,VALID,0,
2015-12-29, 08:07:04,VALID,921.136,VALID,0,VALID,102.413,VALID,153.533,VALID,21.8485,VALID,103,VALID,0,
2015-12-29, 08:08:04,VALID,921.105,VALID,0,VALID,101.475,VALID,170.724,VALID,21.829,VALID,141,VALID,0,
2015-12-29, 08:09:04,VALID,921.112,VALID,0,VALID,102.085,VALID,178.137,VALID,21.8876,VALID,136,VALID,0,
2015-12-29, 08:10:04,VALID,921.112,VALID,0,VALID,102.1,VALID,177.6,VALID,21.9656,VALID,143,VALID,0,
2015-12-29, 08:11:04,VALID,921.082,VALID,0,VALID,101.765,VALID,181.79,VALID,22.0242,VALID,177,VALID,0,
2015-12-29, 08:12:04,VALID,921.119,VALID,0,VALID,99.5313,VALID,182.972,VALID,21.9656,VALID,150,VALID,0.480859,
2015-12-29, 08:13:04,VALID,921.142,VALID,0,VALID,100.827,VALID,182.543,VALID,22.0437,VALID,114,VALID,0.185937,
2015-12-29, 08:14:04,VALID,921.128,VALID,0,VALID,100.576,VALID,179.642,VALID,22.0047,VALID,142,VALID,1.81406,
2015-12-29, 08:15:04,VALID,921.151,VALID,0,VALID,101.254,VALID,178.46,VALID,22.003,VALID,122,VALID,0,
2015-12-29, 08:16:04,VALID,921.133,VALID,0,VALID,100.98,VALID,174.699,VALID,22.003,VALID,139,VALID,0,
2015-12-29, 08:17:04,VALID,921.109,VALID,0,VALID,100.53,VALID,169.435,VALID,21.9623,VALID,143,VALID,1.61094,
2015-12-29, 08:18:04,VALID,921.122,VALID,0,VALID,101.308,VALID,162.236,VALID,21.964,VALID,152,VALID,0.00195313,
2015-12-29, 08:19:04,VALID,921.123,VALID,0,VALID,100.919,VALID,154.393,VALID,21.9249,VALID,146,VALID,0,
2015-12-29, 08:20:04,VALID,921.126,VALID,0,VALID,101.521,VALID,147.517,VALID,21.9851,VALID,156,VALID,0,
2015-12-29, 08:21:04,VALID,921.163,VALID,0,VALID,100.942,VALID,141.285,VALID,22.0047,VALID,132,VALID,0,
2015-12-29, 08:22:04,VALID,921.178,VALID,0,VALID,100.766,VALID,137.095,VALID,22.0242,VALID,108,VALID,0,
2015-12-29, 08:23:04,VALID,921.175,VALID,0,VALID,100.675,VALID,134.301,VALID,22.0632,VALID,180,VALID,0,
2015-12-29, 08:24:04,VALID,921.214,VALID,0,VALID,100.66,VALID,132.045,VALID,22.1217,VALID,175,VALID,0,
2015-12-29, 08:25:04,VALID,921.2,VALID,0,VALID,99.4017,VALID,130.219,VALID,22.1217,VALID,151,VALID,0,
2015-12-29, 08:26:04,VALID,921.224,VALID,0,VALID,99.2416,VALID,127.533,VALID,22.1217,VALID,164,VALID,0,
2015-12-29, 08:27:04,VALID,921.257,VALID,0,VALID,99.7295,VALID,122.59,VALID,22.1396,VALID,203,VALID,0,
2015-12-29, 08:28:04,VALID,921.255,VALID,0,VALID,99.8058,VALID,118.078,VALID,22.1803,VALID,181,VALID,0,
2015-12-29, 08:29:04,VALID,921.279,VALID,0,VALID,99.6152,VALID,113.888,VALID,22.2193,VALID,184,VALID,0,
2015-12-29, 08:30:04,VALID,921.274,VALID,0,VALID,99.1501,VALID,110.127,VALID,22.2176,VALID,166,VALID,0,
2015-12-29, 08:31:04,VALID,921.275,VALID,0,VALID,98.9062,VALID,107.119,VALID,22.2567,VALID,129,VALID,0,
2015-12-29, 08:32:04,VALID,921.285,VALID,0,VALID,99.6457,VALID,103.573,VALID,22.2957,VALID,141,VALID,0,
2015-12-29, 09:19:04,VALID,921.422,VALID,0,VALID,104,VALID,106.152,VALID,20.9511,VALID,139,VALID,0.874609,
2015-12-29, 09:20:04,VALID,921.406,VALID,0.2,VALID,104,VALID,106.797,VALID,20.9105,VALID,149,VALID,1.3168,
2015-12-29, 09:21:04,VALID,921.449,VALID,0.2,VALID,104,VALID,106.367,VALID,20.93,VALID,133,VALID,0.682031,
2015-12-29, 09:27:04,VALID,921.397,VALID,0,VALID,104,VALID,105.615,VALID,21.0291,VALID,158,VALID,0.659766,
2015-12-29, 09:28:04,VALID,921.404,VALID,0,VALID,104,VALID,105.615,VALID,21.0096,VALID,176,VALID,0.665625,
2015-12-29, 10:52:04,VALID,921.102,VALID,0,VALID,104,VALID,100.243,VALID,20.8714,VALID,138,VALID,0.65,
2015-12-29, 10:53:04,VALID,921.071,VALID,0,VALID,104,VALID,103.573,VALID,20.8535,VALID,147,VALID,1.31758,
2015-12-29, 10:54:04,VALID,921.09,VALID,0.2,VALID,104,VALID,106.797,VALID,20.834,VALID,181,VALID,1.47734,
2015-12-29, 10:55:04,VALID,921.053,VALID,0,VALID,104,VALID,110.127,VALID,20.873,VALID,166,VALID,0.739844,
2015-12-29, 10:56:04,VALID,921.026,VALID,0.2,VALID,104,VALID,113.136,VALID,20.834,VALID,143,VALID,1.73828,
2015-12-29, 10:57:04,VALID,921.028,VALID,0,VALID,104,VALID,115.177,VALID,20.8129,VALID,152,VALID,1.20547,
2015-12-29, 10:58:04,VALID,920.991,VALID,0,VALID,104,VALID,120.979,VALID,20.8324,VALID,156,VALID,0.916406,
2015-12-29, 10:59:04,VALID,920.98,VALID,0.2,VALID,104,VALID,125.814,VALID,20.8535,VALID,171,VALID,1.08516,
2015-12-29, 11:00:04,VALID,920.979,VALID,0,VALID,104,VALID,129.681,VALID,20.8535,VALID,190,VALID,1.26914,
2015-12-29, 11:01:04,VALID,920.948,VALID,0,VALID,104,VALID,136.02,VALID,20.8324,VALID,144,VALID,2.28359,
2015-12-29, 11:02:04,VALID,920.943,VALID,0,VALID,104,VALID,140.64,VALID,20.8535,VALID,154,VALID,1.46016,
2015-12-29, 11:03:04,VALID,920.941,VALID,0,VALID,104,VALID,144.508,VALID,20.795,VALID,131,VALID,1.95273,
2015-12-29, 11:04:04,VALID,920.917,VALID,0,VALID,104,VALID,148.591,VALID,20.834,VALID,120,VALID,2.08828,
2015-12-29, 11:05:04,VALID,920.881,VALID,0.2,VALID,104,VALID,152.889,VALID,20.7934,VALID,139,VALID,1.50469,
2015-12-29, 11:06:04,VALID,920.888,VALID,0,VALID,104,VALID,155.897,VALID,20.8519,VALID,144,VALID,0.0183594,
2015-12-29, 11:07:04,VALID,920.867,VALID,0,VALID,104,VALID,159.335,VALID,20.891,VALID,147,VALID,1.66797,
2015-12-29, 11:08:04,VALID,920.882,VALID,0,VALID,104,VALID,163.418,VALID,20.8714,VALID,172,VALID,0.622656,
2015-12-29, 11:09:04,VALID,920.895,VALID,0,VALID,104,VALID,167.823,VALID,20.9105,VALID,140,VALID,1.85117,
2015-12-29, 11:10:04,VALID,920.869,VALID,0,VALID,104,VALID,172.228,VALID,20.93,VALID,153,VALID,1.20273,
2015-12-29, 11:11:04,VALID,920.828,VALID,0,VALID,104,VALID,177.17,VALID,20.93,VALID,128,0,0,
